Погода в Блаже

Румыния     46°10′57″N   23°54′38″E
В апреле 2022 года жителям России запретили посещать сайт meteo.paraplan.net по решению Генеральной прокуратуры. Аудитория сайта уменьшилась в 10 раз. Владельцы сайта не видят смысла в поддержке погодного сервера в таких условиях. Сайт будет закрыт в октябре.
темп.,
°C
ветер,
м/с
пор.,
м/с
влажн.,
%
обл.,
%
осадки,
мм/ч
давл.,
гПа
погр.,
м
4 октября, вт
вт400:00+9юз228552 0.1 101632
03:00+8юз229135 0.4 101735
06:00+7ююз229572 0.1 101814
09:00+9юз2288100 0.1 1020166
12:00+12ююз337152 1.6 1021644
15:00+12с226895 2.9 1021699
18:00+11св237494 0.4 1022190
21:00+9всв008169 0.5 102410
5 октября, ср
ср500:00+8ссв008660 0.0 102610
03:00+7ю11887 0.0 102710
06:00+6ю11915 0.0 102810
09:00+8ю118643 0.0 102986
12:00+13ююз116657 0.0 1029555
15:00+16зсз014993 0.0 1028948
18:00+14ссв115692 0.0 102711
21:00+11в1166100 0.0 102810
6 октября, чт
чт600:00+10юв0070100 0.0 102910
03:00+9юв1175100 0.0 102910
06:00+8вюв0078100 0.0 102910
09:00+9всв0073100 0.0 102960
12:00+14зсз005796 0.0 1029426
15:00+17ссз114698 0.0 1028638
18:00+15св1155100 0.0 102811
21:00+12юв0161100 0.0 102910
7 октября, пт
пт700:00+11всв116676 0.0 103010
03:00+10всв1173100 0.0 103010
06:00+9всв1177100 0.0 103010
09:00+11всв117388 0.0 103079
12:00+16вюв245332 0.0 1029641
15:00+20вюв34457 0.0 10261227
18:00+18в125598 0.0 102511
21:00+14в1166100 0.0 102510
8 октября, сб
сб800:00+12в117874 0.0 102510
03:00+11вюв118485 0.0 102410
06:00+10юв118789 0.0 102410
09:00+11вюв008083 0.0 102468
12:00+17сз116078 0.0 1023508
15:00+20с234844 0.0 1021882
18:00+18св115580 0.0 102011
21:00+14с1163100 0.0 102111